| time (UTC) | temp F | wind direction | speed knots | gust knots | rain 1hr in | rain 24hr in | rain mn in | humidity % | barometer mb |
| 20260504014750 | 61 | 244 | 3.5 | 6.1 | 0.00 | 0.00 | 0.00 | 76 | 1016.0 |
| 20260504014246 | 61 | 299 | 0.9 | 1.7 | 0.00 | 0.00 | 0.00 | 76 | 1016.0 |
| 20260504013744 | 61 | 329 | 0.9 | 2.6 | 0.00 | 0.00 | 0.00 | 76 | 1016.0 |
| 20260504013242 | 61 | 267 | 1.7 | 2.6 | 0.00 | 0.00 | 0.00 | 75 | 1015.6 |
| 20260504012738 | 61 | 229 | 3.5 | 5.2 | 0.00 | 0.00 | 0.00 | 75 | 1016.0 |
| 20260504012236 | 61 | 182 | 4.3 | 6.1 | 0.00 | 0.00 | 0.00 | 75 | 1016.0 |
| 20260504011732 | 62 | 334 | 0.9 | 5.2 | 0.00 | 0.00 | 0.00 | 75 | 1016.0 |
| 20260504011229 | 62 | 221 | 2.6 | 2.6 | 0.00 | 0.00 | 0.00 | 75 | 1016.0 |
| 20260504010725 | 62 | 239 | 2.6 | 3.5 | 0.00 | 0.00 | 0.00 | 74 | 1016.0 |
| 20260504010221 | 62 | 264 | 0.9 | 2.6 | 0.00 | 0.00 | 0.00 | 75 | 1016.0 |
| 20260504005718 | 62 | 216 | 3.5 | 5.2 | 0.00 | 0.00 | 0.00 | 74 | 1016.0 |
| 20260504005215 | 63 | 319 | 1.7 | 2.6 | 0.00 | 0.00 | 0.00 | 73 | 1016.0 |
| 20260504004713 | 62 | 309 | 0.9 | 2.6 | 0.00 | 0.00 | 0.00 | 73 | 1015.6 |
| 20260504004209 | 63 | 264 | 3.5 | 5.2 | 0.00 | 0.00 | 0.00 | 72 | 1015.6 |
| 20260504003706 | 63 | 145 | 2.6 | 3.5 | 0.00 | 0.00 | 0.00 | 71 | 1015.6 |
| 20260504003203 | 64 | 312 | 3.5 | 5.2 | 0.00 | 0.00 | 0.00 | 69 | 1016.0 |
| 20260504002700 | 64 | 339 | 0.9 | 3.5 | 0.00 | 0.00 | 0.00 | 70 | 1015.6 |
| 20260504002157 | 64 | 292 | 0.9 | 2.6 | 0.00 | 0.00 | 0.00 | 70 | 1015.6 |
| 20260504001655 | 64 | 221 | 2.6 | 5.2 | 0.00 | 0.00 | 0.00 | 70 | 1015.6 |
| 20260504001151 | 64 | 238 | 1.7 | 1.7 | 0.00 | 0.00 | 0.00 | 70 | 1015.6 |
| 20260504000648 | 65 | 152 | 1.7 | 3.5 | 0.00 | 0.00 | 0.00 | 69 | 1015.3 |
| 20260504000145 | 64 | 207 | 1.7 | 2.6 | 0.00 | 0.00 | 0.00 | 70 | 1015.6 |
| 20260503235643 | 63 | 310 | 1.7 | 5.2 | 0.00 | 0.00 | 0.00 | 71 | 1015.3 |
| 20260503235140 | 63 | 336 | 0.9 | 3.5 | 0.00 | 0.00 | 0.00 | 73 | 1015.6 |
| 20260503234638 | 63 | 328 | 1.7 | 1.7 | 0.00 | 0.00 | 0.00 | 73 | 1015.3 |
| 20260503234136 | 63 | 318 | 1.7 | 5.2 | 0.00 | 0.00 | 0.00 | 73 | 1015.6 |
| 20260503233632 | 64 | 341 | 1.7 | 5.2 | 0.00 | 0.00 | 0.00 | 72 | 1015.3 |
| 20260503233128 | 63 | 334 | 1.7 | 2.6 | 0.00 | 0.00 | 0.00 | 73 | 1015.6 |
| 20260503232625 | 64 | 327 | 0.9 | 2.6 | 0.00 | 0.00 | 0.00 | 73 | 1015.6 |
| 20260503232122 | 64 | 356 | 0.9 | 5.2 | 0.00 | 0.00 | 0.00 | 73 | 1015.6 |
| 20260503231620 | 63 | 196 | 2.6 | 3.5 | 0.00 | 0.00 | 0.00 | 73 | 1015.6 |
| 20260503231116 | 63 | 302 | 3.5 | 6.1 | 0.00 | 0.00 | 0.00 | 73 | 1015.6 |
| 20260503230614 | 63 | 249 | 2.6 | 6.1 | 0.00 | 0.00 | 0.00 | 72 | 1016.0 |
| 20260503230111 | 63 | 285 | 2.6 | 5.2 | 0.00 | 0.00 | 0.00 | 72 | 1016.0 |
| 20260503225608 | 64 | 287 | 2.6 | 6.1 | 0.00 | 0.00 | 0.00 | 70 | 1016.0 |
| 20260503225108 | 65 | 352 | 1.7 | 5.2 | 0.00 | 0.00 | 0.00 | 70 | 1016.0 |
| 20260503224606 | 64 | 165 | 1.7 | 2.6 | 0.00 | 0.00 | 0.00 | 70 | 1016.0 |
| 20260503224103 | 64 | 232 | 4.3 | 6.1 | 0.00 | 0.00 | 0.00 | 71 | 1016.0 |
| 20260503223601 | 64 | 303 | 1.7 | 3.5 | 0.00 | 0.00 | 0.00 | 71 | 1016.0 |
| 20260503223056 | 64 | 325 | 1.7 | 5.2 | 0.00 | 0.00 | 0.00 | 69 | 1016.0 |
| 20260503222555 | 65 | 194 | 4.3 | 6.1 | 0.00 | 0.00 | 0.00 | 69 | 1016.0 |
| 20260503222052 | 64 | 266 | 2.6 | 3.5 | 0.00 | 0.00 | 0.00 | 70 | 1016.0 |
| 20260503221550 | 64 | 211 | 2.6 | 5.2 | 0.00 | 0.00 | 0.00 | 70 | 1016.3 |
| 20260503221047 | 65 | 213 | 4.3 | 5.2 | 0.00 | 0.00 | 0.00 | 67 | 1016.3 |
| 20260503220543 | 65 | 333 | 3.5 | 3.5 | 0.00 | 0.00 | 0.00 | 67 | 1016.3 |
| 20260503220041 | 66 | 198 | 4.3 | 7.0 | 0.00 | 0.00 | 0.00 | 67 | 1016.3 |
| 20260503215537 | 66 | 286 | 3.5 | 6.1 | 0.00 | 0.00 | 0.00 | 66 | 1016.3 |
| 20260503215034 | 68 | 287 | 2.6 | 3.5 | 0.00 | 0.00 | 0.00 | 64 | 1016.3 |
| 20260503214533 | 67 | 348 | 2.6 | 5.2 | 0.00 | 0.00 | 0.00 | 63 | 1016.6 |
| 20260503214029 | 66 | 321 | 0.9 | 3.5 | 0.00 | 0.00 | 0.00 | 66 | 1016.3 |
| 20260503213528 | 65 | 237 | 2.6 | 3.5 | 0.00 | 0.00 | 0.00 | 66 | 1016.3 |
| 20260503213024 | 65 | 280 | 1.7 | 7.0 | 0.00 | 0.00 | 0.00 | 67 | 1016.3 |
| 20260503212521 | 65 | 354 | 1.7 | 9.6 | 0.00 | 0.00 | 0.00 | 67 | 1016.6 |
| 20260503212019 | 66 | 315 | 0.9 | 5.2 | 0.00 | 0.00 | 0.00 | 65 | 1016.3 |
| 20260503211515 | 66 | 256 | 3.5 | 6.1 | 0.00 | 0.00 | 0.00 | 62 | 1016.6 |
| 20260503211011 | 66 | 309 | 1.7 | 6.1 | 0.00 | 0.00 | 0.00 | 64 | 1016.6 |
| 20260503210508 | 66 | 279 | 2.6 | 7.0 | 0.00 | 0.00 | 0.00 | 63 | 1016.6 |
| 20260503210004 | 66 | 264 | 1.7 | 5.2 | 0.00 | 0.00 | 0.00 | 65 | 1016.6 |
| 20260503205500 | 66 | 234 | 3.5 | 6.1 | 0.00 | 0.00 | 0.00 | 63 | 1016.3 |
| 20260503204956 | 67 | 228 | 3.5 | 5.2 | 0.00 | 0.00 | 0.00 | 60 | 1016.6 |
| 20260503204454 | 66 | 335 | 1.7 | 5.2 | 0.00 | 0.00 | 0.00 | 62 | 1016.6 |
| 20260503203950 | 66 | 284 | 1.7 | 3.5 | 0.00 | 0.00 | 0.00 | 63 | 1016.6 |
| 20260503203448 | 66 | 233 | 3.5 | 6.1 | 0.00 | 0.00 | 0.00 | 61 | 1016.6 |
| 20260503202944 | 65 | 302 | 1.7 | 3.5 | 0.00 | 0.00 | 0.00 | 62 | 1017.0 |
| 20260503202443 | 65 | 236 | 2.6 | 5.2 | 0.00 | 0.00 | 0.00 | 64 | 1016.6 |
| 20260503201941 | 65 | 235 | 0.9 | 3.5 | 0.00 | 0.00 | 0.00 | 65 | 1016.6 |
| 20260503201438 | 66 | 252 | 3.5 | 5.2 | 0.00 | 0.00 | 0.00 | 63 | 1017.0 |
| 20260503200935 | 67 | 267 | 2.6 | 3.5 | 0.00 | 0.00 | 0.00 | 61 | 1016.6 |
| 20260503200432 | 66 | 241 | 3.5 | 5.2 | 0.00 | 0.00 | 0.00 | 61 | 1016.6 |
| 20260503195928 | 66 | 189 | 3.5 | 5.2 | 0.00 | 0.00 | 0.00 | 60 | 1016.6 |
| 20260503195426 | 66 | 232 | 3.5 | 5.2 | 0.00 | 0.00 | 0.00 | 60 | 1017.0 |
| 20260503194922 | 66 | 329 | 0.9 | 2.6 | 0.00 | 0.00 | 0.00 | 61 | 1017.0 |
| 20260503194419 | 66 | 211 | 2.6 | 3.5 | 0.00 | 0.00 | 0.00 | 63 | 1017.0 |
| 20260503193914 | 67 | 258 | 1.7 | 6.1 | 0.00 | 0.00 | 0.00 | 61 | 1017.0 |
| 20260503193410 | 67 | 226 | 2.6 | 5.2 | 0.00 | 0.00 | 0.00 | 61 | 1017.0 |
| 20260503192906 | 67 | 322 | 1.7 | 6.1 | 0.00 | 0.00 | 0.00 | 62 | 1017.0 |
| 20260503192402 | 67 | 135 | 1.7 | 6.1 | 0.00 | 0.00 | 0.00 | 62 | 1017.0 |
| 20260503191858 | 66 | 253 | 3.5 | 5.2 | 0.00 | 0.00 | 0.00 | 63 | 1017.0 |
| 20260503191356 | 66 | 308 | 0.9 | 2.6 | 0.00 | 0.00 | 0.00 | 62 | 1017.0 |
| 20260503190852 | 67 | 240 | 1.7 | 6.1 | 0.00 | 0.00 | 0.00 | 63 | 1017.0 |
| 20260503190349 | 68 | 164 | 1.7 | 5.2 | 0.00 | 0.00 | 0.00 | 61 | 1017.0 |
| 20260503185846 | 68 | 287 | 3.5 | 5.2 | 0.00 | 0.00 | 0.00 | 62 | 1017.0 |
| 20260503185343 | 67 | 247 | 2.6 | 6.1 | 0.00 | 0.00 | 0.00 | 63 | 1017.0 |
| 20260503184842 | 66 | 330 | 4.3 | 6.1 | 0.00 | 0.00 | 0.00 | 64 | 1017.3 |
| 20260503184339 | 66 | 291 | 1.7 | 6.1 | 0.00 | 0.00 | 0.00 | 64 | 1017.0 |
| 20260503183835 | 65 | 235 | 1.7 | 3.5 | 0.00 | 0.00 | 0.00 | 65 | 1017.3 |
| 20260503183332 | 66 | 228 | 1.7 | 5.2 | 0.00 | 0.00 | 0.00 | 63 | 1017.3 |
| 20260503182830 | 66 | 229 | 1.7 | 2.6 | 0.00 | 0.00 | 0.00 | 65 | 1017.3 |
| 20260503182329 | 66 | 344 | 0.9 | 1.7 | 0.00 | 0.00 | 0.00 | 64 | 1017.3 |
| 20260503181825 | 65 | 323 | 0.0 | 1.7 | 0.00 | 0.00 | 0.00 | 65 | 1017.3 |
| 20260503181322 | 66 | 271 | 1.7 | 3.5 | 0.00 | 0.00 | 0.00 | 65 | 1017.3 |
| 20260503180819 | 64 | 336 | 0.9 | 0.9 | 0.00 | 0.00 | 0.00 | 68 | 1017.0 |
| 20260503180317 | 64 | 268 | 0.9 | 2.6 | 0.00 | 0.00 | 0.00 | 68 | 1017.3 |
| 20260503175813 | 63 | 282 | 0.9 | 2.6 | 0.00 | 0.00 | 0.00 | 69 | 1017.0 |
| 20260503175311 | 63 | 276 | 1.7 | 2.6 | 0.00 | 0.00 | 0.00 | 70 | 1017.3 |
| 20260503174806 | 63 | 312 | 0.0 | 0.0 | 0.00 | 0.00 | 0.00 | 71 | 1017.3 |
| 20260503174305 | 63 | 349 | 0.9 | 0.9 | 0.00 | 0.00 | 0.00 | 72 | 1017.3 |
| 20260503173800 | 62 | 254 | 1.7 | 1.7 | 0.00 | 0.00 | 0.00 | 72 | 1017.3 |
| 20260503173255 | 62 | 251 | 1.7 | 2.6 | 0.00 | 0.00 | 0.00 | 73 | 1017.3 |
| 20260503172753 | 62 | 342 | 1.7 | 6.1 | 0.00 | 0.00 | 0.00 | 73 | 1017.3 |
| 20260503172250 | 62 | 313 | 1.7 | 2.6 | 0.00 | 0.00 | 0.00 | 73 | 1017.3 |
| 20260503171746 | 62 | 234 | 1.7 | 2.6 | 0.00 | 0.00 | 0.00 | 74 | 1017.0 |
| 20260503171243 | 62 | 265 | 1.7 | 1.7 | 0.00 | 0.00 | 0.00 | 74 | 1017.3 |
| 20260503170740 | 62 | 284 | 0.0 | 0.0 | 0.00 | 0.00 | 0.00 | 75 | 1017.0 |
| 20260503170237 | 61 | 255 | 2.6 | 2.6 | 0.00 | 0.00 | 0.00 | 75 | 1017.0 |
| 20260503160159 | 60 | 256 | 2.6 | 3.5 | 0.00 | 0.00 | 0.00 | 77 | 1017.0 |
| 20260503150629 | 60 | 264 | 0.9 | 1.7 | 0.00 | 0.00 | 0.00 | 78 | 1016.3 |
| 20260503150125 | 60 | 312 | 0.0 | 0.0 | 0.00 | 0.00 | 0.00 | 79 | 1016.3 |
| 20260503131019 | 59 | 313 | 0.0 | 0.9 | 0.00 | 0.00 | 0.00 | 85 | 1015.3 |
| 20260503130517 | 59 | 305 | 0.0 | 2.6 | 0.00 | 0.00 | 0.00 | 85 | 1015.3 |
| 20260503110407 | 60 | 342 | 0.0 | 0.0 | 0.00 | 0.00 | 0.00 | 82 | 1015.3 |
| 20260503090258 | 60 | 318 | 0.0 | 0.0 | 0.00 | 0.00 | 0.00 | 81 | 1016.0 |
| 20260503081231 | 60 | 313 | 0.0 | 0.9 | 0.00 | 0.00 | 0.00 | 85 | 1016.0 |
| 20260503080726 | 60 | 287 | 0.0 | 1.7 | 0.00 | 0.00 | 0.00 | 85 | 1016.0 |
| 20260503080224 | 60 | 335 | 0.0 | 1.7 | 0.00 | 0.00 | 0.00 | 86 | 1016.0 |
| 20260503072700 | 60 | 335 | 0.0 | 1.7 | 0.00 | 0.00 | 0.00 | 87 | 1015.6 |
| 20260503072157 | 59 | 311 | 0.0 | 0.9 | 0.00 | 0.00 | 0.00 | 87 | 1016.0 |
| 20260503071654 | 59 | 324 | 0.0 | 2.6 | 0.00 | 0.00 | 0.00 | 87 | 1015.6 |
| 20260503071151 | 59 | 288 | 0.9 | 1.7 | 0.00 | 0.00 | 0.00 | 87 | 1015.6 |
| 20260503070648 | 59 | 274 | 0.0 | 1.7 | 0.00 | 0.00 | 0.00 | 87 | 1015.6 |
| 20260503070146 | 59 | 341 | 0.9 | 0.9 | 0.00 | 0.00 | 0.00 | 87 | 1015.3 |
| 20260503060110 | 59 | 342 | 0.0 | 0.9 | 0.00 | 0.00 | 0.00 | 88 | 1015.3 |
| 20260503055101 | 59 | 223 | 1.7 | 2.6 | 0.00 | 0.00 | 0.00 | 88 | 1015.6 |
| 20260503054557 | 59 | 326 | 0.0 | 0.9 | 0.00 | 0.00 | 0.00 | 88 | 1015.3 |
| 20260503054054 | 59 | 336 | 0.0 | 1.7 | 0.00 | 0.00 | 0.00 | 88 | 1015.3 |
| 20260503053552 | 59 | 304 | 0.0 | 0.0 | 0.00 | 0.00 | 0.00 | 89 | 1015.6 |
| 20260503053050 | 59 | 305 | 0.9 | 1.7 | 0.00 | 0.00 | 0.00 | 89 | 1015.6 |
| 20260503052547 | 59 | 267 | 1.7 | 1.7 | 0.00 | 0.00 | 0.00 | 89 | 1015.6 |
| 20260503052043 | 59 | 323 | 0.0 | 1.7 | 0.00 | 0.00 | 0.00 | 88 | 1015.6 |
| 20260503051538 | 60 | 310 | 0.9 | 2.6 | 0.00 | 0.00 | 0.00 | 89 | 1015.6 |
| 20260503051037 | 60 | 290 | 1.7 | 2.6 | 0.00 | 0.00 | 0.00 | 89 | 1015.6 |
| 20260503050532 | 60 | 251 | 0.9 | 2.6 | 0.00 | 0.00 | 0.00 | 89 | 1015.6 |
| 20260503050030 | 60 | 198 | 1.7 | 2.6 | 0.00 | 0.00 | 0.00 | 89 | 1016.0 |
| 20260503045527 | 60 | 273 | 0.9 | 2.6 | 0.00 | 0.00 | 0.00 | 90 | 1015.6 |
| 20260503045024 | 60 | 328 | 0.9 | 2.6 | 0.00 | 0.00 | 0.00 | 90 | 1015.6 |
| 20260503044520 | 60 | 300 | 0.9 | 3.5 | 0.00 | 0.00 | 0.00 | 90 | 1015.3 |
| 20260503044018 | 60 | 268 | 0.0 | 2.6 | 0.00 | 0.00 | 0.00 | 90 | 1015.3 |
| 20260503043514 | 60 | 283 | 0.9 | 1.7 | 0.00 | 0.00 | 0.00 | 90 | 1015.3 |
| 20260503043011 | 60 | 274 | 0.9 | 0.9 | 0.00 | 0.00 | 0.00 | 90 | 1015.3 |
| 20260503042508 | 60 | 202 | 0.9 | 2.6 | 0.00 | 0.00 | 0.00 | 90 | 1015.3 |
| 20260503042004 | 60 | 321 | 0.9 | 2.6 | 0.00 | 0.00 | 0.00 | 90 | 1014.9 |
| 20260503041501 | 60 | 284 | 0.9 | 1.7 | 0.00 | 0.00 | 0.00 | 89 | 1014.9 |
| 20260503040959 | 60 | 321 | 0.9 | 1.7 | 0.00 | 0.00 | 0.00 | 90 | 1014.9 |
| 20260503040456 | 60 | 324 | 0.0 | 0.0 | 0.00 | 0.00 | 0.00 | 90 | 1014.6 |
| 20260503035953 | 60 | 312 | 0.9 | 2.6 | 0.00 | 0.00 | 0.00 | 90 | 1014.9 |
| 20260503035449 | 60 | 228 | 0.9 | 2.6 | 0.00 | 0.00 | 0.00 | 90 | 1014.9 |
| 20260503034947 | 60 | 337 | 0.0 | 1.7 | 0.00 | 0.00 | 0.00 | 90 | 1014.6 |
| 20260503034444 | 60 | 284 | 0.9 | 1.7 | 0.00 | 0.00 | 0.00 | 89 | 1014.6 |
| 20260503033941 | 60 | 235 | 1.7 | 1.7 | 0.00 | 0.00 | 0.00 | 89 | 1014.6 |
| 20260503033439 | 60 | 276 | 1.7 | 1.7 | 0.00 | 0.00 | 0.00 | 89 | 1014.3 |
| 20260503032937 | 60 | 305 | 0.0 | 1.7 | 0.00 | 0.00 | 0.00 | 89 | 1014.3 |
| 20260503032435 | 60 | 285 | 0.9 | 1.7 | 0.00 | 0.00 | 0.00 | 89 | 1014.3 |
| 20260503031932 | 60 | 313 | 0.0 | 0.9 | 0.00 | 0.00 | 0.00 | 89 | 1013.9 |
| 20260503031430 | 60 | 330 | 1.7 | 2.6 | 0.00 | 0.00 | 0.00 | 89 | 1013.9 |
| 20260503030926 | 60 | 334 | 0.0 | 0.0 | 0.00 | 0.00 | 0.00 | 89 | 1013.6 |
| 20260503030423 | 60 | 339 | 0.0 | 3.5 | 0.00 | 0.00 | 0.00 | 88 | 1013.9 |
| 20260503025920 | 60 | 308 | 0.9 | 2.6 | 0.00 | 0.00 | 0.00 | 88 | 1013.6 |
| 20260503025417 | 60 | 321 | 0.0 | 1.7 | 0.00 | 0.00 | 0.00 | 88 | 1013.9 |
| 20260503024914 | 60 | 328 | 0.0 | 1.7 | 0.00 | 0.00 | 0.00 | 88 | 1013.6 |
| 20260503024410 | 60 | 246 | 0.0 | 2.6 | 0.00 | 0.00 | 0.00 | 88 | 1013.6 |
| 20260503023908 | 60 | 308 | 0.9 | 1.7 | 0.00 | 0.00 | 0.00 | 88 | 1013.6 |
| 20260503023404 | 60 | 299 | 1.7 | 2.6 | 0.00 | 0.00 | 0.00 | 87 | 1013.6 |
| 20260503022901 | 60 | 256 | 1.7 | 3.5 | 0.00 | 0.00 | 0.00 | 87 | 1013.6 |
| 20260503022355 | 60 | 290 | 0.9 | 3.5 | 0.00 | 0.00 | 0.00 | 87 | 1013.2 |
| 20260503021852 | 61 | 272 | 1.7 | 2.6 | 0.00 | 0.00 | 0.00 | 86 | 1013.6 |
| 20260503021349 | 61 | 290 | 1.7 | 2.6 | 0.00 | 0.00 | 0.00 | 85 | 1013.2 |
| 20260503020846 | 61 | 341 | 0.9 | 1.7 | 0.00 | 0.00 | 0.00 | 85 | 1013.2 |
| 20260503020344 | 61 | 279 | 2.6 | 3.5 | 0.00 | 0.00 | 0.00 | 84 | 1013.2 |
| 20260503015840 | 61 | 283 | 2.6 | 3.5 | 0.00 | 0.00 | 0.00 | 84 | 1013.6 |
| 20260503015337 | 62 | 265 | 0.9 | 2.6 | 0.00 | 0.00 | 0.00 | 84 | 1013.2 |
| 20260503014833 | 61 | 302 | 0.9 | 1.7 | 0.00 | 0.00 | 0.00 | 84 | 1013.2 |